Tracking 34719 objects as of 12-Jul-2026
HD Live streaming from Space Station
objects crossing your sky now

STARLINK-37701

Track STARLINK-37701 now!
10-day predictions
STARLINK-37701 is classified as:


NORAD ID: 69306
Int'l Code: 2026-119L
Perigee: 471.4 km
Apogee: 474.0 km
Inclination: 97.3 °
Period: 93.9 minutes
Semi major axis: 6843 km
RCS: Unknown
Launch date: May 30, 2026
Source: United States (US)
Launch site: AIR FORCE WESTERN TEST RANGE (AFWTR)
Your satellite tracking list
Your tracking list is empty




NASA's NSSDC Master Catalog

Two Line Element Set (TLE):
1 69306U 26119L   26193.02759171  .00012101  00000-0  37658-3 0  9993
2 69306  97.2846 218.7705 0001856 105.1237 255.0211 15.33441374  7863
Source of the keplerian elements: AFSPC